Ogden Hill AFB, UT

11:28 AM MDT on September 23, 2017 (GMT -0600)
Hill Air Force Base

Weather History for KHIF - June, 2013

Change the Weather History Date:

Thursday, June 27, 2013

  Actual Average Record
Temperature  
Mean Temperature 80 °F -  
Max Temperature 95 °F 82 °F 96 °F (2015)
Min Temperature 65 °F 58 °F 50 °F (1998)
Cooling Degree Days 15    
Growing Degree Days 30 (Base 50)    
Moisture  
Dew Point 46 °F    
Average Humidity 31    
Maximum Humidity 49    
Minimum Humidity 15    
Precipitation  
Precipitation 0.00 in - - ()
Sea Level Pressure  
Sea Level Pressure 30.02 in    
Wind  
Wind Speed 13 mph (East)    
Max Wind Speed 23 mph    
Max Gust Speed 28 mph    
Visibility 10 miles    
Events      
Averages and records for this station are not official NWS values.
T = Trace of Precipitation, MM = Missing Value Source: NWS Daily Summary

Daily Weather History Graph

Daily Weather History Graph

Search for Another Location

Airport or City:

Trip Planner

Search our weather history database for the weather conditions in past years. The results will help you decide how hot, cold, wet, or windy it might be!

Date:

Astronomy

Jun. 27, 2013 Rise Set
Actual Time 5:57 AM MDT 9:04 PM MDT
Civil Twilight 5:23 AM MDT 9:38 PM MDT
Nautical Twilight 4:40 AM MDT 10:21 PM MDT
Astronomical Twilight 3:49 AM MDT 11:12 PM MDT
Moon No Moon Rise 11:05 AM MDT (6/27)
Length of Visible Light 16h 14m
Length of Day
15h 07m
Waning Gibbous, 76% of the Moon is Illuminated
Jun 27
Waning Gibbous
Jun 29
Last Quarter
Jul 8
New
Jul 15
First Quarter
Jul 22
Full

Hourly Weather History & Observations

Time (MDT) Temp. Dew Point Humidity Pressure Visibility Wind Dir Wind Speed Gust Speed Precip Events Conditions
12:58 AM 73.4 °F 46.8 °F 39% 29.95 in 10.0 mi ESE 12.7 mph - N/A   Clear
1:58 AM 72.3 °F 45.9 °F 39% 29.95 in 10.0 mi ESE 15.0 mph - N/A   Clear
2:58 AM 70.5 °F 46.0 °F 42% 29.96 in 10.0 mi ESE 16.1 mph - N/A   Clear
3:58 AM 69.4 °F 45.5 °F 42% 29.96 in 10.0 mi ESE 19.6 mph - N/A   Clear
4:58 AM 67.3 °F 46.0 °F 46% 29.96 in 10.0 mi ESE 23.0 mph 27.6 mph N/A   Clear
5:58 AM 67.5 °F 45.5 °F 45% 29.99 in 10.0 mi ESE 20.7 mph 26.5 mph N/A   Clear
6:58 AM 65.5 °F 46.0 °F 49% 30.02 in 10.0 mi ESE 18.4 mph - N/A   Clear
7:58 AM 67.5 °F 46.9 °F 48% 30.04 in 10.0 mi ESE 18.4 mph - N/A   Clear
8:58 AM 71.4 °F 48.2 °F 44% 30.07 in 10.0 mi ESE 16.1 mph - N/A   Clear
9:58 AM 78.4 °F 49.6 °F 36% 29.91 in 10.0 mi ESE 10.4 mph - N/A   Clear
10:58 AM 82.9 °F 51.1 °F 33% 30.26 in 10.0 mi ESE 9.2 mph - N/A   Clear
11:58 AM 87.4 °F 47.8 °F 25% 30.26 in 10.0 mi ENE 5.8 mph - N/A   Clear
12:58 PM 90.0 °F 45.0 °F 21% 30.06 in 10.0 mi WNW 4.6 mph - N/A   Clear
1:58 PM 91.9 °F 45.1 °F 20% 30.05 in 10.0 mi SSW 5.8 mph - N/A   Clear
2:58 PM 93.0 °F 50.4 °F 23% 30.04 in 10.0 mi Variable 6.9 mph - N/A   Clear
3:58 PM 94.3 °F 48.0 °F 21% 30.03 in 10.0 mi WSW 3.5 mph - N/A   Clear
4:58 PM 95.0 °F 46.4 °F 19% 30.01 in 10.0 mi North 10.4 mph - N/A   Clear
5:58 PM 94.5 °F 42.3 °F 16% 30.01 in 10.0 mi NNW 5.8 mph - N/A   Clear
6:58 PM 95.2 °F 41.0 °F 15% 30.01 in 10.0 mi North 5.8 mph - N/A   Clear
7:58 PM 93.2 °F 44.6 °F 19% 30.01 in 10.0 mi NNW 5.8 mph - N/A   Clear
8:58 PM 90.3 °F 46.6 °F 22% 29.99 in 10.0 mi NNE 2.3 mph - N/A   Clear
9:58 PM 82.9 °F 45.3 °F 27% 30.01 in 10.0 mi ESE 10.4 mph - N/A   Clear
10:58 PM 81.5 °F 43.3 °F 26% 30.00 in 10.0 mi ESE 12.7 mph - N/A   Clear
11:58 PM 79.7 °F 43.2 °F 27% 30.00 in 10.0 mi ESE 8.1 mph - N/A   Clear